Location: Apeadero de Los Molinos-Guadarrama
(40.7091°N, 4.0689°W)
Time: 13:07:38
(UTC+00:00)

Tianhe-1 - Pass Details

Date: 14 May 2021
Orbit: 375 x 386 km, 41.5° (Epoch: 18 June)

Event Time Altitude Azimuth Distance (km) Brightness Sun altitude
Rises 20:50:21 0° 235° (SW) 2,218 5.1 -14.2°
Reaches altitude 10° 20:52:28 10° 227° (SW) 1,371 3.9 -14.5°
Maximum altitude 20:55:22 38° 157° (SSE) 588 1.5 -14.9°
Enters shadow 20:55:38 37° 143° (SE) 599 1.5 -14.9°
